[Date Prev][Date Next][Thread Prev][Thread Next] - [Date Index][Thread Index][Author Index]

2 Line ISS Keps 7-17



ISS
1 25544U 98067A   01198.33165259  .00093510  00000-0  98150-3 0  2215
2 25544  51.5693 296.0797 0015476 287.2602 104.0092 15.63440197151790


----
Via the sarex mailing list at AMSAT.ORG courtesy of AMSAT-NA.
To unsubscribe, send "unsubscribe sarex" to Majordomo@amsat.org



AMSAT Top AMSAT Home